Flag for Slovenia Weather past 2 weeks in Ljubljana, Slovenia

Now
67 °F

Partly sunny.


Feels Like: 67 °F
Forecast: 46 / 69 °F
Wind: 2 mph from Southeast

Location: Ljubljana / Bezigrad

Current Time: May 26, 2015 at 4:53:05 PM

Latest Report: May 26, 2015 at 4:00 PM


Visibility: 16 mi

Pressure: 29.80 "Hg

Humidity: 51%

Dew point: 48 °F

Location of LjubljanaLocation

Historic Weather in Ljubljana — Graph

°F

Ljubljana temperature yesterday

Maximum temperature yesterday: 71 °F (at 2:00 PM)
Minimum temperature yesterday: 52 °F (at 6:00 AM)
Average temperature yesterday: 60 °F

Past Weeks' High & Low Weather Summary

 TemperatureHumidityPressure
High82 °F (May 19, 3:00 PM)100% (May 24, 2:00 AM)30.36 "Hg (May 24, 2:00 AM)
Low48 °F (May 12, 6:00 AM)34% (May 12, 3:00 PM)29.68 "Hg (May 19, 6:00 PM)
Average61 °F74%29.98 "Hg
* Reported May 11 3:00 PM — May 26 3:00 PM, Ljubljana, Weather by CustomWeather, © 2015

Note: Actual official high and low records may vary slightly from our data, if they occured in-between our weather recording intervals... More about our weather records

Advertising

Ljubljana weather history for previous 24 hours

 ConditionsComfort  
Time TempWeatherWind HumidityBarometerVisibility
3:00 PM
Tue, May 26
69 °FSprinkles. Partly sunny.6 mph48%29.78 "Hg25 mi
2:00 PM73 °FPartly sunny.2 mph34%29.77 "Hg31 mi
1:00 PM69 °FScattered clouds.1 mph42%29.78 "Hg31 mi
12:00 PM66 °FPartly sunny.1 mph62%29.81 "Hg31 mi
11:00 AM64 °FOvercast.2 mph66%29.82 "Hg31 mi
10:00 AM62 °FOvercast.1 mph66%29.82 "Hg31 mi
9:00 AM61 °FCool.1 mph73%29.83 "HgN/A
8:00 AM59 °FPartly sunny.1 mph80%29.82 "Hg31 mi
7:00 AM55 °FPartly sunny.No wind90%29.82 "Hg31 mi
6:00 AM53 °FPartly sunny.No wind92%29.83 "Hg31 mi
5:00 AM54 °FCool.1 mph91%29.82 "HgN/A
4:00 AM55 °FCool.1 mph87%29.82 "HgN/A
3:00 AM56 °FCool.No wind82%29.81 "HgN/A
2:00 AM56 °FCool.No wind83%29.82 "HgN/A
1:00 AM58 °FCool.No wind79%29.84 "HgN/A
12:00 AM59 °FCool.1 mph76%29.85 "HgN/A
10:00 PM
Mon, May 25
60 °FPassing clouds.2 mph76%29.85 "Hg16 mi
9:00 PM61 °FOvercast.2 mph70%29.84 "Hg17 mi
8:00 PM63 °FOvercast.3 mph66%29.83 "Hg17 mi
7:00 PM64 °FOvercast.2 mph62%29.82 "Hg17 mi
6:00 PM65 °FOvercast.2 mph59%29.82 "Hg17 mi
5:00 PM67 °FOvercast.2 mph54%29.82 "Hg17 mi
4:00 PM68 °FOvercast.2 mph48%29.82 "Hg19 mi
Weather by CustomWeather, © 2015

See weather overviewHow to use our weather pages